Regional Weather Roundup
Issued by NWS Sterling, VA

Home | Current Version | Previous Version | Text Only | Print | Product List | Glossary Off
Versions: 1 2 3 4 5 6 7 8 9 10 11 12 13 14 15 16 17 18 19 20 21 22 23 24 25 26 27 28 29 30 31 32 33 34 35 36 37 38 39 40 41 42 43 44 45 46 47 48 49 50

000
ASUS41 KLWX 280810
RWRLWX

REGIONAL WEATHER ROUNDUP
NATIONAL WEATHER SERVICE BALTIMORE MD/WASHINGTON DC
300 AM EST SAT FEB 28 2015

Note: "FAIR" indicates few or no clouds below 12,000 feet
with no significant weather and/or obstructions to visibility.
 TC=TEMPERATURE CELSIUS

 * =Non NWS site. Station does not report precipitation (e.g. rain,
    snow, etc.), thunder, or fog.

DCZ001-MDZ009-015-VAZ040>042-051-053>054-280900-
WASHINGTON METRO

CITY           SKY/WX    TMP DP  RH WIND       PRES   REMARKS
WASHINGTON NAT MOCLDY    22   3  44 N9        30.73R WCI  12
DULLES         CLEAR     17   0  47 NE3       30.71R
ANDREWS AFB    PTCLDY    18   3  52 N8        30.70R WCI   8
FT BELVOIR     CLEAR     20   2  46 NW1       30.73R
QUANTICO       CLEAR     21   3  45 N3        30.74R
COLLEGE PARK*  FAIR      21   3  45 N3        30.72S
LEESBURG*      CLEAR     19   5  53 N7        30.72R
MANASSAS*      CLEAR     16   7  67 CALM      30.72R
GAITHERSBURG*  CLEAR     14   0  52 CALM      30.72R

$$

MDZ006>007-011-014-280900-
BALTIMORE METRO

CITY           SKY/WX    TMP DP  RH WIND       PRES   REMARKS
BWI AIRPORT    PTCLDY    17  -1  45 NW5       30.70S
MD SCIENCE CTR   N/A     19  -1  41 MISG      30.71F
MARTIN STATE   CLEAR     21   1  42 NW7       30.72F
ANNAPOLIS      CLEAR     20   4  50 NW6       30.71S
FORT MEADE*    CLEAR     19   1  45 N3        30.73S

$$

MDZ012-015-019>023-280900-
MARYLAND EASTERN SHORE

CITY           SKY/WX    TMP DP  RH WIND       PRES   REMARKS
OCEAN CITY     PTCLDY    20   7  57 N9        30.68S WCI   9
SALISBURY      PTCLDY    19   9  65 NW3       30.69S
BAY BRIDGE AP*   N/A     21   3  45 N9        30.72R WCI  11
CAMBRIDGE*     CLEAR     23   7  50 NW6       30.70R
EASTON*        CLEAR     22   8  53 N6        30.73S

$$

MDZ017>025-280900-
SOUTHERN MARYLAND

CITY           SKY/WX    TMP DP  RH WIND       PRES   REMARKS
PATUXENT RIVER MOCLDY    22   6  50 N9        30.71R WCI  12
ST INIGOES     CLEAR     22   3  44 N3        30.70R
LEONARDTOWN*   MOCLDY    21   3  45 N5        30.72R

$$

MDZ003>005-280900-
NORTH CENTRAL MARYLAND

CITY           SKY/WX    TMP DP  RH WIND       PRES   REMARKS
FREDERICK*     CLEAR     16   1  53 CALM      30.74R
HAGERSTOWN APT PTCLDY    16  -2  45 NW5       30.69R
WESTMINSTER*   PTCLDY    12  -2  52 CALM      30.66R

$$

MDZ501>502-280900-
WESTERN MARYLAND

CITY           SKY/WX    TMP DP  RH WIND       PRES   REMARKS
OAKLAND*       PTCLDY     5  -8  56 CALM      30.46S
CUMBERLAND*    PTCLDY    18   1  49 CALM      30.73R

$$

VAZ025>031-280900-
SHENANDOAH VALLEY

CITY           SKY/WX    TMP DP  RH WIND       PRES   REMARKS
WINCHESTER*    CLEAR     16   0  48 CALM      30.68S
FRONT ROYAL*   FAIR      16   1  53 CALM      30.68R
LURAY*         FAIR      18   7  62 N6        30.66R
NEW MARKET*    FAIR       7   3  84 CALM      30.65R
STAUNTON*      FAIR      15   3  60 CALM      30.64S
WAYNESBORO*    FAIR      12   3  68 CALM      30.60R

$$

WVZ021-048>050-054>055-280900-
EASTERN WEST VIRGINIA PANHANDLE

CITY           SKY/WX    TMP DP  RH WIND       PRES   REMARKS
MARTINSBURG    CLEAR     17  -1  45 N5        30.70R
PETERSBURG*    NOT AVBL

$$

VAZ036>039-050-280900-
CENTRAL FOOTHILLS

CITY           SKY/WX    TMP DP  RH WIND       PRES   REMARKS
CHARLOTTESVILL CLEAR     20   4  50 E7        30.67R
CULPEPER*      CLEAR     16   5  62 CALM      30.71R
ORANGE*        CLEAR     19   5  53 CALM      30.71R
GORDONSVILLE*  FAIR      18   3  52 NE3       30.69R
WARRENTON*     FAIR      16  12  84 CALM      30.70S

$$

VAZ055>057-280900-
NORTH AND CENTRAL PIEDMONT

CITY           SKY/WX    TMP DP  RH WIND       PRES   REMARKS
FREDERICKSBRG* CLEAR     22   4  46 N6        30.72S
STAFFORD*      CLEAR     19  -1  41 N3        30.76R

$$

NCZ024-NYZ072-PAZ021-071-VAZ022-071-280900-
OTHER REGIONAL OBSERVATIONS

CITY           SKY/WX    TMP DP  RH WIND       PRES   REMARKS
NEW YORK CITY  CLEAR     17  -4  39 VRB3      30.68R
PHILADELPHIA   PTCLDY    20   2  45 N8        30.71R WCI  10
PITTSBURGH     PTCLDY     3  -3  76 CALM      30.65R
ROANOKE        CLEAR     18   5  57 NW5       30.63S
RICHMOND       CLEAR     23   6  48 NE8       30.70R WCI  14
RALEIGH        PTCLDY    27  20  75 NE8       30.62R WCI  19

$$

ANZ530>537-280900-
MARINE OBSERVATIONS

STATION/POSITION TIME  TEMP    WIND        PRES
                       AIR SEA DIR/SP/G
                 (UTC) (F)     (DEG/KT/KT) (MB)
THOMAS PT LIGHT  0800   22 31  340/  9/ 11 1041.0R
BALT KEY BRIDGE  0700   21     320/ 12/ 14 1040.0R
COVE POINT       0700   23      10/ 12/ 16 1039.1R
LEWISETTA        0700   25 32              1039.3R
SOLOMONS ISLAND  0700      33                N/A

$$



USA.gov is the U.S. government's official web portal to all federal, state and local government web resources and services.